Location: Kopernik Observatory
(42.0014°N, 76.0372°W)
Time: 03:05:17
(UTC-04:00)

Daily predictions for brighter satellites

Satellite Brightness Start Highest point End
(mag) Time Altitude Azimuth Time Altitude Azimuth Time Altitude Azimuth
Cosmos 841 Rocket 4.4 00:07:27 46° N 00:07:27 46° N 00:11:12 10° NNE
ALOS 2 4.5 00:08:53 27° NNE 00:08:53 27° NNE 00:11:07 10° N
USA 238 DEB 4.2 00:08:11 10° NNW 00:15:07 54° NE 00:15:57 51° ENE
USA 238 4.2 00:08:17 10° NNW 00:15:13 53° NE 00:16:04 51° ENE
Cosmos 2369 Rocket 3.2 00:20:47 10° NNW 00:25:24 40° NE 00:25:24 40° NE
Nadezhda 1 Rocket 4.4 00:30:43 56° NE 00:30:43 56° NE 00:35:49 10° NNE
Cosmos 1943 Rocket 3.8 00:24:58 10° N 00:29:38 25° NE 00:29:59 25° ENE
CZ-4C R/B 4.2 00:24:21 10° WNW 00:29:38 25° WSW 00:29:38 25° WSW
ATLAS CENTAUR R/B 4.0 00:45:51 17° NNW 00:45:51 17° NNW 00:48:07 10° N
Cosmos 2184 Rocket 4.4 00:42:30 10° NNW 00:47:56 59° NW 00:47:56 59° NW
SL-16 R/B 3.8 00:49:41 26° WNW 00:50:36 27° NW 00:55:24 10° N
CZ-2C R/B 3.5 01:03:03 10° N 01:07:21 47° NNW 01:07:21 47° NNW
ATLAS 2AS CENTAUR R/B 3.8 01:11:16 34° W 01:14:11 46° NW 01:22:00 10° NNE
Cosmos 2341 Rocket 4.2 01:12:34 10° N 01:17:52 66° N 01:17:52 66° N
NOSS 3-2 (A) 4.0 01:18:05 10° NNW 01:25:36 75° NE 01:26:33 67° ESE
ATLAS 3B R/B 3.9 01:32:51 10° NW 01:36:24 27° WNW 01:36:24 27° WNW
Cosmos 1943 3.9 01:43:36 47° NNW 01:43:36 47° NNW 01:48:11 10° NNE
COSMOS 2455 3.2 01:51:38 10° NNW 01:57:36 60° ENE 01:57:37 60° ENE
Cosmos 2369 Rocket 4.1 02:05:10 10° NW 02:07:10 19° WNW 02:07:10 19° WNW
Cosmos 2366 rocket 4.0 02:05:58 10° N 02:11:43 74° NW 02:11:43 74° NW
Cosmos 1943 Rocket 3.4 02:08:12 10° NNW 02:11:29 33° NW 02:11:29 33° NW
Cosmos 2218 Rocket 4.1 02:07:57 10° NNW 02:13:20 62° NW 02:13:20 62° NW
USA 215 3.2 02:09:42 10° NE 02:16:03 69° SE 02:16:03 69° SE
SL-16 R/B 3.9 02:26:01 16° ESE 02:30:06 33° ENE 02:35:31 10° N
CENTAUR R/B 3.5 02:27:06 10° NNW 02:34:52 63° NE 02:43:12 10° SE
Cosmos 2056 Rocket 4.2 02:31:58 10° N 02:37:09 49° ENE 02:37:59 45° E
NOSS 3-2 (C) 4.1 02:30:51 10° NW 02:37:54 56° WSW 02:37:54 56° WSW
Cosmos 1680 Rocket 3.9 02:41:13 56° NNW 02:41:13 56° NNW 02:45:47 10° NNE
CBERS-1 4.3 02:41:10 10° NNE 02:46:05 60° E 02:46:05 60° E
Lacrosse 5 rocket 2.3 02:47:41 52° NE 02:47:41 52° NE 02:51:16 10° NE
Aureole 1 Rocket 4.2 02:48:27 38° NNW 02:48:27 38° NNW 02:51:14 10° N
Cosmos 1656 Rocket 4.3 02:42:21 10° NNW 02:46:05 42° NW 02:46:05 42° NW
IRS-P3 4.1 02:43:11 10° NNE 02:48:28 78° E 02:48:28 78° E
USA 267 4.2 02:42:32 10° E 02:48:43 47° NNE 02:54:55 10° NW
COSMOS 2406 3.1 02:51:03 76° WNW 02:51:05 76° WNW 02:56:52 10° NNE
SL-08 R/B 3.5 02:53:04 70° NNE 02:53:04 70° NNE 02:57:25 10° N
SL-27 R/B 4.3 02:58:23 30° NNE 02:58:23 30° NNE 03:00:23 10° NNE
Nadezhda 3 Rocket 3.9 03:01:28 66° WSW 03:02:07 71° W 03:08:28 10° N
NOSS 2-2 (D) 4.0 03:04:05 57° ENE 03:04:05 57° ENE 03:07:56 10° NE
NOSS 3-4 (A) 4.4 03:03:05 32° WNW 03:04:50 38° NW 03:10:55 10° NNE
NOSS 3-4 (C) 4.4 03:03:12 33° WNW 03:04:56 38° NW 03:11:01 10° NNE
IRS-1D 4.4 03:00:14 10° NNE 03:05:14 43° E 03:06:29 37° SE
Meteor 2-8 Rocket 4.3 03:04:53 68° SSW 03:05:42 83° W 03:11:54 10° N
ARIANE 5 R/B 3.4 03:03:22 10° NNE 03:08:21 43° E 03:09:38 36° SE
Cosmos 1953 Rocket 4.0 03:08:43 58° E 03:08:43 58° E 03:13:06 10° NNE
Resurs 1-4 Rocket 2.8 03:04:09 10° NNE 03:09:13 46° E 03:10:30 38° SE
Cosmos 1371 Rocket 4.2 03:08:05 10° NNW 03:12:51 58° WNW 03:12:51 58° WNW
ADEOS 4.1 03:10:45 10° NNE 03:15:51 51° E 03:17:10 41° SE
RESURS DK-1 4.0 03:20:16 25° NW 03:20:16 25° NW 03:23:14 10° N
NOSS 2-2 (C) 3.6 03:21:59 71° NNW 03:21:59 71° NNW 03:26:23 10° NNE
Cosmos 1470 3.6 03:20:38 10° N 03:24:24 46° ENE 03:25:00 42° ESE
Cosmos 839 Rocket 4.2 03:20:53 10° NNW 03:27:16 84° ENE 03:34:49 10° SSE
NPP 3.9 03:23:02 10° N 03:28:16 52° WNW 03:28:55 49° W
Cosmos 1825 Rocket 3.8 03:28:52 58° WNW 03:28:52 58° WNW 03:32:53 10° N
Cosmos 1727 Rocket 4.5 03:26:46 26° SSE 03:30:06 55° E 03:36:06 10° NNE
UNK 3.6 03:31:16 65° SSE 03:31:57 90° NNE 03:36:34 10° NNW
CZ-2D R/B 2.1 03:28:09 10° NNE 03:33:27 76° ESE 03:34:59 47° S
Cosmos 1697 Rocket 4.3 03:32:47 10° N 03:37:53 34° ENE 03:42:56 10° ESE
COSMOS 2487 2.9 03:39:06 55° E 03:39:06 55° E 03:42:31 10° NNE
AQUA 4.2 03:34:39 10° N 03:39:13 45° WNW 03:39:31 45° W
Cosmos 1733 3.2 03:37:20 10° N 03:41:08 74° E 03:41:25 69° ESE
COSMOS 2455 4.5 03:38:30 10° WNW 03:40:43 18° WNW 03:40:43 18° WNW
UNKNOWN OBJECT B 3.7 03:39:55 10° NNE 03:43:48 45° E 03:45:06 33° SSE
Cosmos 1821 Rocket 4.2 03:38:43 10° NNW 03:44:32 47° W 03:45:48 41° SW
Cosmos 1818 3.8 03:43:32 44° WSW 03:44:54 57° NW 03:50:18 10° NNE
Cosmos 1953 3.1 03:42:24 10° NNW 03:45:27 39° WNW 03:45:27 39° WNW
Cosmos 2278 3.7 03:46:45 10° NNW 03:52:31 87° ENE 03:58:14 10° SSE
Cosmos 1656 3.9 03:52:46 10° NNW 03:58:11 66° ENE 04:03:35 10° SSE
USA 215 4.1 03:52:56 10° NE 03:59:00 42° NNW 04:03:24 18° W
Cosmos 1934 Rocket 4.3 03:53:05 10° NNW 03:59:07 48° W 04:01:25 33° SW
USA 161 2.8 03:58:15 28° ESE 03:59:14 39° ENE 04:01:52 10° N
Cosmos 2369 3.6 03:55:50 10° NNW 04:01:36 82° WSW 04:07:20 10° SSE
COBE Rocket 3.9 03:57:07 10° N 04:02:07 71° WNW 04:03:56 38° SSW
GPS 2-05 Rocket1 4.5 04:03:31 23° SSE 04:03:31 23° SSE 04:05:38 10° ESE
Okean O Rocket 4.0 03:59:54 10° NE 04:03:09 20° E 04:06:22 10° SE
Cosmos 1605 Rocket 4.0 03:59:25 10° NNW 04:05:30 61° W 04:09:04 25° SSW
Cosmos-2242 3.0 04:01:53 10° NNW 04:06:14 61° W 04:07:35 40° SSW
GEOS 3 Rocket 3.6 04:01:50 10° NE 04:07:10 89° SE 04:09:44 32° SW
ADEOS II 4.0 04:03:24 10° NE 04:07:46 26° E 04:12:04 10° SSE
Cosmos 158 Rocket 4.5 04:05:55 21° S 04:09:07 55° ESE 04:14:10 10° NNE
Cosmos 1833 Rocket 2.9 04:05:59 25° S 04:09:15 68° ESE 04:14:51 10° NNE
Cosmos 1339 Rocket 4.4 04:06:19 26° SSW 04:09:52 77° W 04:16:02 10° N
Cosmos 921 Rocket 4.5 04:07:05 10° NW 04:09:45 22° WNW 04:09:45 22° WNW
ADEOS Rocket 3.3 04:06:16 10° N 04:12:18 56° WNW 04:16:02 26° SW
Abrixas 4.3 04:11:29 15° NW 04:13:13 27° NNE 04:15:43 10° ENE
Cosmos 1980 Rocket 3.7 04:08:10 10° N 04:13:30 39° ENE 04:18:47 10° SE
SL-16 R/B 2.9 04:11:06 29° SW 04:13:35 41° W 04:19:22 10° NNW
Cosmos 2082 Rocket 2.2 04:13:23 26° SSW 04:16:45 85° ESE 04:22:29 10° NNE
Cosmos 389 Rocket 3.4 04:18:23 10° NNW 04:21:26 31° W 04:21:26 31° W
Cosmos 2098 Rocket 3.5 04:20:07 10° NNW 04:21:50 25° WNW 04:21:50 25° WNW
Cosmos 1842 Rocket 3.5 04:18:34 10° N 04:23:00 88° ENE 04:27:28 10° S
CENTAUR R/B 3.6 04:18:18 10° NW 04:25:23 35° WSW 04:32:46 10° S
Cosmos 2221 4.1 04:21:56 10° N 04:25:54 36° ENE 04:29:50 10° SE
Lacrosse 5 rocket 3.4 04:23:22 14° WNW 04:26:20 24° NNW 04:30:08 10° NNE
Timation 2 Rocket 4.3 04:23:34 15° SSW 04:29:07 70° ESE 04:35:30 10° NNE
CZ-2D R/B 3.4 04:26:15 10° N 04:30:15 60° WNW 04:32:16 27° SW
USA 267 3.2 04:25:09 10° SSE 04:31:36 60° SW 04:38:04 10° NW
EXPRESS MD2 3.2 04:26:10 10° WNW 04:31:52 72° SW 04:34:49 10° SE
Cosmos 1378 3.4 04:31:08 31° SW 04:32:35 49° W 04:36:14 10° N
Landsat 4 3.7 04:28:59 10° SSE 04:32:42 81° ENE 04:36:28 10° N
Cosmos 972 Rocket 4.4 04:29:10 10° NNW 04:35:33 82° ENE 04:41:09 10° SSE
Meteor 2-5 Rocket 3.9 04:32:45 20° SSW 04:36:40 57° WNW 04:42:28 10° N
Cosmos 2100 Rocket 3.9 04:34:20 10° N 04:40:32 76° W 04:46:38 10° S
Cosmos 2173 Rocket 3.9 04:34:55 10° N 04:41:13 82° W 04:47:23 10° S
Cosmos 1707 4.0 04:42:22 22° WSW 04:43:32 25° WNW 04:46:48 10° NNW
Meteor 1-16 Rocket 4.3 04:39:46 10° NNW 04:44:55 49° W 04:49:59 10° SSW
MOZ.5/SAFIR/RUBIN 5/SL-8 4.2 04:41:46 14° SSW 04:45:23 39° W 04:49:48 10° NNW
MOS 1 Rocket 3.3 04:42:20 10° N 04:46:39 58° WNW 04:50:20 15° SSW
ARIANE 5 R/B 3.8 04:42:59 10° N 04:47:11 25° WNW 04:49:58 16° WSW
Resurs 1-4 Rocket 3.4 04:44:38 10° NNW 04:48:45 24° WNW 04:51:36 15° WSW
Meteor 2-1 Rocket 4.2 04:45:24 10° NNW 04:51:06 82° W 04:56:54 10° S
In-Cosmos 22 4.1 04:46:27 10° S 04:51:44 81° E 04:57:02 10° NNE
NOSS 8 (F) 4.5 04:51:58 20° SW 04:54:17 72° NW 04:57:55 10° NNE
OE (NEXTSAT) 4.5 04:57:51 18° SW 05:00:19 68° SSE 05:03:51 10° ENE
CZ-4B R/B 3.1 04:58:49 10° NNE 05:03:14 89° ESE 05:07:45 10° SSW
CZ-2D R/B 3.9 05:09:55 10° NNW 05:12:52 15° WNW 05:15:48 10° W
Cosmos 2061 Rocket 4.3 05:11:43 10° NNW 05:17:36 45° W 05:23:25 10° SSW
MTI 3.8 05:15:11 10° SSE 05:18:24 85° E 05:21:40 10° N
Gbstr 26 Del rocket 4.3 05:11:06 10° NW 05:18:55 85° SW 05:25:27 10° SE
Cosmos 2360 4.2 05:13:48 10° NNW 05:19:33 79° WSW 05:25:14 10° SSE
Cosmos 2016 Rocket 4.1 05:13:38 10° NNW 05:19:46 57° W 05:25:56 10° S
Cosmos 1697 Rocket 3.2 05:16:45 10° NW 05:21:49 36° WSW 05:26:51 10° S
Okean-O 4.3 05:18:01 10° NNE 05:22:08 36° E 05:26:14 10° SSE
Cosmos 2123 Rocket 4.0 05:16:10 10° SSW 05:22:28 76° W 05:28:46 10° N
Cosmos 1076 Rocket 3.4 05:18:17 10° SSW 05:22:31 75° W 05:26:47 10° N
DELTA 2 R/B(2) 4.3 05:21:22 12° SW 05:22:39 24° SSE 05:24:12 10° ESE
Orbus 7S? 4.0 05:20:55 10° WNW 05:22:58 18° WSW 05:24:51 10° S
Okean 3 Rocket 3.9 05:19:08 10° SSW 05:23:24 49° W 05:27:44 10° N
Meteor 1-24 Rocket 4.4 05:18:40 10° SW 05:23:44 37° WNW 05:29:02 10° N
Cosmos 1110 Rocket 4.0 05:18:42 10° NNW 05:23:59 69° WSW 05:29:13 10° S
Aureole 2 4.4 05:24:24 10° NNW 05:27:20 72° ENE 05:30:25 10° SSE
Cosmos 1184 Rocket 3.1 05:28:36 10° S 05:31:56 72° E 05:35:16 10° NNE
Cosmos 1302 Rocket 4.3 05:28:56 10° NNW 05:34:10 74° ENE 05:39:24 10° SSE
CZ-4B DEB 4.3 05:28:53 10° N 05:34:19 64° WNW 05:39:42 10° SSW
Cosmos 1766 Rocket 3.6 05:30:02 10° S 05:34:31 81° W 05:39:01 10° N
